User: anonymous   Login
Location: Newark
(41.0000°N, 28.9500°W)
Time: 07:24:14
(UTC+00:00)
Language:

N. Korean satellite - Orbit

View from above orbital plane
View from above orbital plane
View from above satellite
View from above satellite

Ground track
Ground track

The orbit data is extracted from the following two-line orbital elements,

1 39026U 12072A   20051.73422479  .00001034  00000-0  39455-4 0  9996
2 39026  97.2196  52.0622 0036093 304.4412  55.3419 15.28346581399328
Epoch (UTC): 20 February 2020 17:37:17
Eccentricity: 0.0036093
inclination: 97.2196°
perigee height: 456 km
apogee height: 505 km
right ascension of ascending node: 52.0622°
argument of perigee: 304.4412°
revolutions per day: 15.28346581
mean anomaly at epoch: 55.3419°
orbit number at epoch: 39932

The dashed part of the orbit path shows where the satellite is in the earth's shadow,  

DLR